APSTAR 5 (TELSTAR 18)

导读

APSTAR 5,也叫TELSTAR 18,又名亚太五号卫星,是一颗由劳拉空间系统公司制造、亚洲卫星公司运营的地球同步轨道通信卫星。它于2004年6月29日发射,搭载波音702平台,配备C波段和Ku波段转发器,主要为跨太平洋地区提供固定卫星服务和广播电视广播服务,支持企业通信与互联网连接,覆盖亚洲、澳大拉西亚和北美洲,是区域通信网络的重要支撑。

基本信息
目录编号:
28364
目录名称:
APSTAR 5 (TELSTAR 18)
国际标识:
2004-024A
轨道中心:
EARTH
卫星名称:
APSTAR 5 (TELSTAR 18)
卫星全名:
--
卫星状态:
在轨 (已飞行8027 天)
发射日期:
2004-06-29 UTC
国别 :
中国 (CN)
星等 :
--
轨道信息
数据来源 国际轨道数据 AOE轨道数据
星历时间 2026-06-20T04:24:22+0800
1天前
查看轨道信息
2026-06-21T00:00:00+0800
18小时前
查看轨道信息
半长轴 42521.521km 42521.75km
偏心率 0.0005436 0.0005656
轨道倾角 6.980° 6.982°
近地点辐角 347.671° 347.647°
升交点赤经 69.730° 69.720°
平近点角 263.988° 195.031°
近地点 36120.269km 36119.562km
远地点 36166.499km 36167.664km
周期 1454.363分钟 1454.375分钟
每日圈数 0.990124 0.990116
详细信息
使用方式:
暂无
2D轨道图
3D轨道图
轨道高度分析图
轨道倾角分析图
轨道综合分析图
查看轨道综合分析图